DLH876 EDDF-ENBR

Flight info

Callsign DLH876
Flight time 1h 56m
Altitude 37000
Route MARUN2D MARUN Y150 TOLGI DCT AMRAK/N0438F380 DCT RASVI DCT PEVEB DCT BADAB
Aircraft A320/M-SDE2E3FGIJ1LORWXYZ/HB1

Departure

Time 2026-04-17 05:18
Airport Frankfurt Main Airport (EDDF)

Arrival

Time 2026-04-17 07:15
Airport Bergen Airport, Flesland (ENBR)
Time Latitude Longitude Altitude Speed Heading
2026-04-17 05:05 50.04533 8.56584 332 ft 0 kts 115°
2026-04-17 05:06 50.04539 8.56562 362 ft 4 kts 115°
2026-04-17 05:06 50.04551 8.56524 363 ft 4 kts 115°
2026-04-17 05:06 50.04560 8.56488 364 ft 4 kts 97°
2026-04-17 05:06 50.04557 8.56451 361 ft 4 kts 48°
2026-04-17 05:07 50.04548 8.56439 363 ft 0 kts 25°
2026-04-17 05:09 50.04549 8.56439 361 ft 2 kts 19°
2026-04-17 05:09 50.04538 8.56405 366 ft 6 kts 227°
2026-04-17 05:09 50.04496 8.56308 361 ft 15 kts 251°
2026-04-17 05:10 50.04460 8.56147 363 ft 15 kts 249°
2026-04-17 05:10 50.04423 8.55996 365 ft 15 kts 249°
2026-04-17 05:10 50.04360 8.55937 361 ft 12 kts 158°
2026-04-17 05:10 50.04290 8.55986 361 ft 10 kts 143°
2026-04-17 05:11 50.04289 8.56105 363 ft 15 kts 65°
2026-04-17 05:11 50.04322 8.56264 361 ft 16 kts 73°
2026-04-17 05:11 50.04358 8.56443 364 ft 18 kts 66°
2026-04-17 05:11 50.04407 8.56644 362 ft 22 kts 70°
2026-04-17 05:12 50.04466 8.56889 363 ft 26 kts 69°
2026-04-17 05:12 50.04531 8.57163 365 ft 28 kts 69°
2026-04-17 05:12 50.04584 8.57370 361 ft 14 kts 68°
2026-04-17 05:12 50.04572 8.57498 362 ft 13 kts 140°
2026-04-17 05:13 50.04504 8.57580 365 ft 12 kts 143°
2026-04-17 05:13 50.04469 8.57673 368 ft 10 kts 85°
2026-04-17 05:13 50.04485 8.57765 362 ft 8 kts 71°
2026-04-17 05:13 50.04501 8.57843 368 ft 7 kts 72°
2026-04-17 05:14 50.04522 8.57933 364 ft 12 kts 67°
2026-04-17 05:14 50.04561 8.58093 365 ft 19 kts 70°
2026-04-17 05:14 50.04609 8.58295 368 ft 21 kts 69°
2026-04-17 05:14 50.04662 8.58515 365 ft 23 kts 69°
2026-04-17 05:15 50.04699 8.58664 367 ft 7 kts 68°
2026-04-17 05:15 50.04697 8.58726 366 ft 5 kts 118°
2026-04-17 05:15 50.04684 8.58746 366 ft 0 kts 141°
2026-04-17 05:16 50.04676 8.58753 363 ft 5 kts 151°
2026-04-17 05:16 50.04619 8.58753 364 ft 10 kts 197°
2026-04-17 05:16 50.04573 8.58703 365 ft 6 kts 220°
2026-04-17 05:16 50.04549 8.58674 367 ft 4 kts 214°
2026-04-17 05:17 50.04505 8.58624 368 ft 8 kts 219°
2026-04-17 05:17 50.04481 8.58563 367 ft 4 kts 250°
2026-04-17 05:17 50.04478 8.58550 369 ft 12 kts 250°
2026-04-17 05:17 50.04345 8.57996 364 ft 92 kts 249°
2026-04-17 05:18 50.04047 8.56747 363 ft 151 kts 250°
2026-04-17 05:18 50.03604 8.55027 562 ft 183 kts 246°
2026-04-17 05:18 50.03059 8.53216 1242 ft 187 kts 244°
2026-04-17 05:18 50.02575 8.51324 2025 ft 188 kts 257°
2026-04-17 05:19 50.02555 8.49324 2814 ft 185 kts 281°
2026-04-17 05:19 50.02903 8.47352 3325 ft 199 kts 280°
2026-04-17 05:19 50.03150 8.45170 3761 ft 214 kts 275°
2026-04-17 05:19 50.03078 8.42758 4113 ft 236 kts 254°
2026-04-17 05:20 50.02587 8.40201 4692 ft 255 kts 253°
2026-04-17 05:20 50.02157 8.37463 5503 ft 265 kts 265°
2026-04-17 05:20 50.02551 8.34683 6417 ft 272 kts 300°
2026-04-17 05:20 50.03900 8.32606 7363 ft 277 kts 327°
2026-04-17 05:21 50.05622 8.31244 8325 ft 279 kts 336°
2026-04-17 05:21 50.07434 8.30119 9295 ft 282 kts 338°
2026-04-17 05:21 50.09264 8.28986 10243 ft 284 kts 336°
2026-04-17 05:21 50.11147 8.28077 11059 ft 288 kts 349°
2026-04-17 05:22 50.13166 8.27973 11909 ft 294 kts
2026-04-17 05:22 50.15230 8.28688 12235 ft 320 kts 20°
2026-04-17 05:22 50.17268 8.30320 12758 ft 334 kts 26°
2026-04-17 05:22 50.19329 8.32087 13519 ft 340 kts 26°
2026-04-17 05:23 50.21400 8.33869 14268 ft 343 kts 26°
2026-04-17 05:23 50.23503 8.35682 14978 ft 347 kts 26°
2026-04-17 05:23 50.25634 8.37520 15674 ft 350 kts 26°
2026-04-17 05:23 50.27788 8.39375 16361 ft 354 kts 26°
2026-04-17 05:24 50.30029 8.41023 17049 ft 355 kts 17°
2026-04-17 05:24 50.32375 8.42302 17723 ft 359 kts 16°
2026-04-17 05:24 50.34743 8.43586 18417 ft 362 kts 16°
2026-04-17 05:24 50.37109 8.44869 19017 ft 365 kts 16°
2026-04-17 05:25 50.39530 8.46185 19623 ft 368 kts 16°
2026-04-17 05:25 50.41959 8.47510 20228 ft 371 kts 16°
2026-04-17 05:25 50.44411 8.48857 20836 ft 373 kts 16°
2026-04-17 05:25 50.46852 8.50199 21415 ft 376 kts 15°
2026-04-17 05:26 50.49340 8.51518 21997 ft 378 kts 14°
2026-04-17 05:26 50.51860 8.52752 22570 ft 380 kts 13°
2026-04-17 05:26 50.54415 8.53943 23122 ft 382 kts 12°
2026-04-17 05:26 50.56984 8.55124 23704 ft 385 kts 12°
2026-04-17 05:27 50.59563 8.56321 24181 ft 387 kts 12°
2026-04-17 05:27 50.62132 8.57527 24630 ft 390 kts 13°
2026-04-17 05:27 50.64735 8.58766 25070 ft 392 kts 13°
2026-04-17 05:27 50.67369 8.60035 25497 ft 395 kts 13°
2026-04-17 05:28 50.70002 8.61309 25936 ft 397 kts 13°
2026-04-17 05:28 50.72652 8.62593 26359 ft 400 kts 13°
2026-04-17 05:28 50.75293 8.63874 26783 ft 402 kts 13°
2026-04-17 05:28 50.77976 8.65210 27189 ft 406 kts 16°
2026-04-17 05:29 50.80561 8.67124 27589 ft 414 kts 26°
2026-04-17 05:29 50.82936 8.69804 27977 ft 423 kts 37°
2026-04-17 05:29 50.85004 8.73189 28374 ft 432 kts 47°
2026-04-17 05:29 50.86819 8.76948 28750 ft 435 kts 48°
2026-04-17 05:30 50.88658 8.80783 29133 ft 438 kts 48°
2026-04-17 05:30 50.90510 8.84650 29512 ft 441 kts 48°
2026-04-17 05:30 50.92367 8.88534 29886 ft 443 kts 48°
2026-04-17 05:30 50.94239 8.92454 30259 ft 446 kts 48°
2026-04-17 05:31 50.96096 8.96351 30568 ft 448 kts 49°
2026-04-17 05:31 50.97986 9.00322 30877 ft 451 kts 48°
2026-04-17 05:31 50.99885 9.04318 31179 ft 453 kts 48°
2026-04-17 05:31 51.01787 9.08328 31465 ft 456 kts 48°
2026-04-17 05:32 51.03699 9.12371 31741 ft 458 kts 48°
2026-04-17 05:32 51.05615 9.16434 32094 ft 458 kts 48°
2026-04-17 05:32 51.07557 9.20461 32475 ft 455 kts 44°
2026-04-17 05:32 51.09746 9.23962 32840 ft 448 kts 34°
2026-04-17 05:33 51.12258 9.26852 33224 ft 441 kts 25°
2026-04-17 05:33 51.14983 9.29031 33604 ft 434 kts 16°
2026-04-17 05:33 51.17830 9.30482 33994 ft 426 kts
2026-04-17 05:33 51.20728 9.31482 34394 ft 425 kts
2026-04-17 05:34 51.23614 9.32473 34739 ft 424 kts
2026-04-17 05:34 51.26456 9.33456 35056 ft 423 kts
2026-04-17 05:34 51.29336 9.34460 35342 ft 423 kts
2026-04-17 05:34 51.32225 9.35469 35633 ft 423 kts
2026-04-17 05:35 51.35112 9.36474 35918 ft 423 kts
2026-04-17 05:35 51.37986 9.37476 36188 ft 423 kts
2026-04-17 05:35 51.40875 9.38483 36458 ft 423 kts
2026-04-17 05:35 51.43725 9.39475 36726 ft 423 kts
2026-04-17 05:36 51.46606 9.40483 36988 ft 423 kts
2026-04-17 05:36 51.49491 9.41496 37232 ft 423 kts
2026-04-17 05:36 51.52378 9.42511 37491 ft 423 kts
2026-04-17 05:36 51.55253 9.43520 37742 ft 423 kts
2026-04-17 05:37 51.58097 9.44519 37975 ft 423 kts
2026-04-17 05:37 51.60975 9.45529 38191 ft 424 kts
2026-04-17 05:37 51.66737 9.47557 38272 ft 423 kts
2026-04-17 05:38 51.72486 9.49592 38258 ft 422 kts
2026-04-17 05:38 51.78227 9.51631 38255 ft 422 kts
2026-04-17 05:39 51.83978 9.53370 38259 ft 416 kts 358°
2026-04-17 05:39 51.89721 9.53761 38261 ft 415 kts 357°
2026-04-17 05:40 51.95498 9.54151 38274 ft 415 kts 357°
2026-04-17 05:40 52.00300 9.54483 38277 ft 415 kts 357°
2026-04-17 05:41 52.07007 9.54955 38274 ft 414 kts 357°
2026-04-17 05:41 52.11837 9.55290 38270 ft 414 kts 357°
2026-04-17 05:42 52.17563 9.55675 38286 ft 414 kts 357°
2026-04-17 05:42 52.23323 9.56064 38275 ft 414 kts 357°
2026-04-17 05:43 52.29074 9.56467 38284 ft 414 kts 357°
2026-04-17 05:43 52.34842 9.56863 38283 ft 414 kts 357°
2026-04-17 05:44 52.40573 9.57261 38300 ft 414 kts 357°
2026-04-17 05:44 52.46331 9.57656 38294 ft 413 kts 357°
2026-04-17 05:45 52.52076 9.58059 38289 ft 413 kts 357°
2026-04-17 05:45 52.57837 9.58460 38284 ft 413 kts 357°
2026-04-17 05:46 52.63549 9.58860 38294 ft 413 kts 357°
2026-04-17 05:46 52.69317 9.59275 38286 ft 414 kts 357°
2026-04-17 05:47 52.75049 9.59681 38278 ft 414 kts 357°
2026-04-17 05:47 52.80840 9.60087 38274 ft 413 kts 357°
2026-04-17 05:48 52.86550 9.60488 38296 ft 413 kts 357°
2026-04-17 05:48 52.92306 9.60907 38287 ft 413 kts 357°
2026-04-17 05:49 52.98059 9.61319 38283 ft 413 kts 357°
2026-04-17 05:49 53.03772 9.61720 38279 ft 413 kts 357°
2026-04-17 05:50 53.09525 9.62137 38277 ft 413 kts 357°
2026-04-17 05:50 53.15243 9.62552 38269 ft 412 kts 357°
2026-04-17 05:51 53.20990 9.62960 38276 ft 412 kts 357°
2026-04-17 05:51 53.26735 9.63362 38278 ft 412 kts 357°
2026-04-17 05:52 53.32449 9.63777 38277 ft 412 kts 357°
2026-04-17 05:52 53.38194 9.64190 38289 ft 412 kts 357°
2026-04-17 05:53 53.43904 9.64608 38288 ft 412 kts 357°
2026-04-17 05:53 53.49643 9.65031 38284 ft 412 kts 357°
2026-04-17 05:54 53.55351 9.65446 38279 ft 412 kts 357°
2026-04-17 05:54 53.61099 9.65865 38304 ft 412 kts 357°
2026-04-17 05:55 53.66823 9.66292 38293 ft 412 kts 357°
2026-04-17 05:55 53.72524 9.66712 38285 ft 412 kts 357°
2026-04-17 05:56 53.78272 9.67141 38284 ft 413 kts 357°
2026-04-17 05:56 53.84025 9.67573 38283 ft 413 kts 357°
2026-04-17 05:57 53.89742 9.67998 38296 ft 413 kts 357°
2026-04-17 05:57 53.95496 9.68420 38287 ft 413 kts 357°
2026-04-17 05:58 54.01254 9.68845 38283 ft 414 kts 357°
2026-04-17 05:59 54.09894 9.69497 38285 ft 414 kts 357°
2026-04-17 05:59 54.15625 9.69931 38294 ft 414 kts 358°
2026-04-17 06:00 54.21397 9.70372 38288 ft 414 kts 358°
2026-04-17 06:00 54.27147 9.70803 38286 ft 414 kts 358°
2026-04-17 06:01 54.32892 9.71245 38292 ft 414 kts 358°
2026-04-17 06:01 54.38661 9.71685 38310 ft 414 kts 358°
2026-04-17 06:02 54.44437 9.72130 38302 ft 414 kts 358°
2026-04-17 06:02 54.50208 9.72572 38298 ft 414 kts 358°
2026-04-17 06:03 54.55940 9.73017 38295 ft 414 kts 358°
2026-04-17 06:03 54.61708 9.73456 38315 ft 414 kts 358°
2026-04-17 06:04 54.67442 9.73890 38289 ft 414 kts 358°
2026-04-17 06:04 54.73233 9.74343 38285 ft 415 kts 358°
2026-04-17 06:05 54.79014 9.74790 38289 ft 416 kts 357°
2026-04-17 06:05 54.84633 9.73583 38306 ft 406 kts 339°
2026-04-17 06:06 54.89925 9.70205 38325 ft 405 kts 336°
2026-04-17 06:06 54.95232 9.66766 38318 ft 406 kts 336°
2026-04-17 06:07 55.00517 9.63355 38313 ft 406 kts 336°
2026-04-17 06:07 55.05838 9.59903 38311 ft 407 kts 336°
2026-04-17 06:08 55.11115 9.56453 38309 ft 407 kts 336°
2026-04-17 06:08 55.16428 9.52970 38326 ft 407 kts 336°
2026-04-17 06:09 55.21738 9.49482 38305 ft 408 kts 336°
2026-04-17 06:09 55.27033 9.45990 38296 ft 408 kts 336°
2026-04-17 06:10 55.32355 9.42472 38300 ft 408 kts 336°
2026-04-17 06:10 55.37659 9.38960 38289 ft 409 kts 336°
2026-04-17 06:11 55.43002 9.35403 38294 ft 410 kts 336°
2026-04-17 06:11 55.48341 9.31830 38289 ft 410 kts 336°
2026-04-17 06:12 55.53668 9.28274 38288 ft 411 kts 336°
2026-04-17 06:12 55.59020 9.24701 38308 ft 411 kts 336°
2026-04-17 06:13 55.64352 9.21105 38314 ft 411 kts 336°
2026-04-17 06:13 55.69710 9.17477 38314 ft 411 kts 336°
2026-04-17 06:14 55.75056 9.13859 38317 ft 411 kts 336°
2026-04-17 06:14 55.80381 9.10250 38317 ft 411 kts 336°
2026-04-17 06:15 55.85730 9.06611 38314 ft 411 kts 336°
2026-04-17 06:15 55.91090 9.02963 38298 ft 412 kts 336°
2026-04-17 06:16 55.96424 8.99317 38290 ft 412 kts 335°
2026-04-17 06:16 56.01794 8.95617 38296 ft 413 kts 336°
2026-04-17 06:17 56.07132 8.91941 38285 ft 414 kts 336°
2026-04-17 06:17 56.12519 8.88229 38282 ft 414 kts 336°
2026-04-17 06:18 56.17884 8.84516 38278 ft 414 kts 336°
2026-04-17 06:18 56.23266 8.80768 38280 ft 414 kts 336°
2026-04-17 06:19 56.28652 8.77014 38300 ft 415 kts 336°
2026-04-17 06:19 56.34035 8.73257 38292 ft 415 kts 336°
2026-04-17 06:20 56.39424 8.69484 38279 ft 415 kts 336°
2026-04-17 06:20 56.44781 8.65714 38280 ft 415 kts 335°
2026-04-17 06:21 56.50179 8.61897 38270 ft 416 kts 335°
2026-04-17 06:21 56.55589 8.58069 38275 ft 417 kts 336°
2026-04-17 06:22 56.60969 8.54250 38274 ft 417 kts 336°
2026-04-17 06:22 56.66390 8.50394 38273 ft 418 kts 336°
2026-04-17 06:23 56.71809 8.46523 38269 ft 418 kts 336°
2026-04-17 06:23 56.77198 8.42658 38268 ft 418 kts 335°
2026-04-17 06:24 56.81710 8.39417 38273 ft 418 kts 335°
2026-04-17 06:24 56.87128 8.35516 38291 ft 419 kts 336°
2026-04-17 06:25 56.92523 8.31610 38280 ft 419 kts 336°
2026-04-17 06:25 56.97972 8.27657 38277 ft 419 kts 336°
2026-04-17 06:26 57.03371 8.23732 38276 ft 420 kts 335°
2026-04-17 06:26 57.08811 8.19774 38270 ft 420 kts 335°
2026-04-17 06:27 57.14263 8.15790 38281 ft 421 kts 335°
2026-04-17 06:27 57.19720 8.11781 38276 ft 422 kts 335°
2026-04-17 06:28 57.25161 8.07770 38279 ft 422 kts 335°
2026-04-17 06:28 57.30542 8.03410 38280 ft 420 kts 329°
2026-04-17 06:29 57.35671 7.98303 38278 ft 421 kts 329°
2026-04-17 06:29 57.40831 7.93159 38297 ft 421 kts 329°
2026-04-17 06:30 57.46005 7.88009 38285 ft 421 kts 329°
2026-04-17 06:30 57.51180 7.82830 38281 ft 421 kts 329°
2026-04-17 06:31 57.56342 7.77642 38286 ft 422 kts 329°
2026-04-17 06:31 57.61501 7.72446 38276 ft 422 kts 329°
2026-04-17 06:32 57.66641 7.67244 38275 ft 422 kts 329°
2026-04-17 06:32 57.71829 7.61981 38293 ft 423 kts 329°
2026-04-17 06:33 57.77008 7.56710 38281 ft 423 kts 329°
2026-04-17 06:33 57.82174 7.51423 38283 ft 423 kts 328°
2026-04-17 06:34 57.87321 7.46139 38280 ft 424 kts 328°
2026-04-17 06:34 57.92501 7.40814 38282 ft 424 kts 328°
2026-04-17 06:35 57.97680 7.35469 38290 ft 424 kts 328°
2026-04-17 06:35 58.02852 7.30117 38301 ft 425 kts 328°
2026-04-17 06:36 58.08056 7.24715 38282 ft 425 kts 328°
2026-04-17 06:36 58.13251 7.19308 38279 ft 426 kts 328°
2026-04-17 06:37 58.18407 7.13922 38271 ft 425 kts 328°
2026-04-17 06:37 58.23592 7.08481 38269 ft 425 kts 328°
2026-04-17 06:38 58.28779 7.03017 38292 ft 425 kts 328°
2026-04-17 06:38 58.33974 6.97525 38281 ft 426 kts 328°
2026-04-17 06:39 58.39125 6.92066 38260 ft 426 kts 328°
2026-04-17 06:39 58.44313 6.86550 38270 ft 427 kts 328°
2026-04-17 06:40 58.49489 6.80988 38274 ft 427 kts 325°
2026-04-17 06:40 58.54363 6.74556 38263 ft 426 kts 322°
2026-04-17 06:41 58.59229 6.68017 38261 ft 426 kts 322°
2026-04-17 06:41 58.64088 6.61461 38252 ft 427 kts 322°
2026-04-17 06:41 58.66534 6.58155 37538 ft 432 kts 322°
2026-04-17 06:42 58.68985 6.54839 36927 ft 430 kts 322°
2026-04-17 06:42 58.71417 6.51545 36405 ft 425 kts 321°
2026-04-17 06:42 58.73824 6.48284 35946 ft 421 kts 321°
2026-04-17 06:42 58.76174 6.45092 35497 ft 416 kts 321°
2026-04-17 06:43 58.78528 6.41887 35056 ft 411 kts 321°
2026-04-17 06:43 58.80865 6.38697 34624 ft 407 kts 321°
2026-04-17 06:43 58.83162 6.35551 34199 ft 402 kts 321°
2026-04-17 06:43 58.85436 6.32430 33685 ft 398 kts 321°
2026-04-17 06:44 58.87690 6.29336 33119 ft 397 kts 321°
2026-04-17 06:44 58.89913 6.26277 32589 ft 395 kts 321°
2026-04-17 06:44 58.92149 6.23198 32076 ft 392 kts 321°
2026-04-17 06:44 58.94364 6.20147 31589 ft 389 kts 321°
2026-04-17 06:45 58.96573 6.17100 31097 ft 387 kts 321°
2026-04-17 06:45 58.98752 6.14080 30610 ft 384 kts 320°
2026-04-17 06:45 59.00928 6.11055 30100 ft 382 kts 320°
2026-04-17 06:45 59.03061 6.08088 29555 ft 380 kts 321°
2026-04-17 06:46 59.05237 6.05141 29015 ft 379 kts 325°
2026-04-17 06:46 59.07555 6.02810 28486 ft 380 kts 334°
2026-04-17 06:46 59.10075 6.01221 27969 ft 381 kts 344°
2026-04-17 06:46 59.12683 6.00218 27444 ft 380 kts 346°
2026-04-17 06:47 59.15276 5.99243 26943 ft 378 kts 346°
2026-04-17 06:47 59.17861 5.98260 26450 ft 376 kts 346°
2026-04-17 06:47 59.20426 5.97279 25997 ft 374 kts 346°
2026-04-17 06:47 59.22967 5.96308 25536 ft 371 kts 346°
2026-04-17 06:48 59.25498 5.95341 25074 ft 370 kts 346°
2026-04-17 06:48 59.27984 5.94388 24619 ft 368 kts 346°
2026-04-17 06:48 59.30498 5.93422 24166 ft 366 kts 346°
2026-04-17 06:48 59.33005 5.92456 23699 ft 365 kts 346°
2026-04-17 06:49 59.35467 5.91508 23196 ft 363 kts 347°
2026-04-17 06:49 59.37946 5.90556 22713 ft 361 kts 347°
2026-04-17 06:49 59.40405 5.89607 22245 ft 359 kts 347°
2026-04-17 06:49 59.42854 5.88670 21789 ft 358 kts 348°
2026-04-17 06:50 59.45334 5.88144 21333 ft 357 kts 353°
2026-04-17 06:50 59.47806 5.87742 20894 ft 355 kts 353°
2026-04-17 06:50 59.50266 5.87344 20465 ft 354 kts 353°
2026-04-17 06:50 59.52686 5.86953 20070 ft 352 kts 353°
2026-04-17 06:51 59.55131 5.86559 19666 ft 351 kts 354°
2026-04-17 06:51 59.57570 5.86165 19273 ft 350 kts 354°
2026-04-17 06:51 59.59994 5.85771 18890 ft 348 kts 354°
2026-04-17 06:51 59.62382 5.85378 18519 ft 347 kts 354°
2026-04-17 06:52 59.64789 5.84984 18099 ft 346 kts 354°
2026-04-17 06:52 59.67184 5.84594 17720 ft 344 kts 354°
2026-04-17 06:52 59.69574 5.84202 17340 ft 342 kts 354°
2026-04-17 06:52 59.71908 5.83815 16971 ft 340 kts 354°
2026-04-17 06:53 59.74270 5.83421 16613 ft 338 kts 354°
2026-04-17 06:53 59.76608 5.83031 16273 ft 335 kts 354°
2026-04-17 06:53 59.78934 5.82646 15947 ft 333 kts 354°
2026-04-17 06:53 59.81209 5.82271 15632 ft 331 kts 354°
2026-04-17 06:54 59.83487 5.81649 15305 ft 329 kts 349°
2026-04-17 06:54 59.85729 5.80840 14989 ft 327 kts 349°
2026-04-17 06:54 59.87963 5.80031 14673 ft 325 kts 349°
2026-04-17 06:54 59.90187 5.79228 14357 ft 323 kts 349°
2026-04-17 06:55 59.92414 5.78426 13808 ft 332 kts 349°
2026-04-17 06:55 59.94725 5.77593 13203 ft 337 kts 349°
2026-04-17 06:55 59.96997 5.76773 13015 ft 323 kts 349°
2026-04-17 06:55 59.99165 5.75990 12782 ft 317 kts 349°
2026-04-17 06:56 60.01333 5.75207 12467 ft 315 kts 349°
2026-04-17 06:56 60.03477 5.74429 12116 ft 313 kts 349°
2026-04-17 06:56 60.05619 5.73655 11795 ft 311 kts 348°
2026-04-17 06:56 60.07741 5.72887 11442 ft 307 kts 348°
2026-04-17 06:57 60.09848 5.72125 11089 ft 306 kts 348°
2026-04-17 06:57 60.11937 5.71368 10740 ft 304 kts 348°
2026-04-17 06:57 60.13995 5.70633 10391 ft 303 kts 349°
2026-04-17 06:57 60.16086 5.69988 10031 ft 302 kts 350°
2026-04-17 06:58 60.18162 5.69415 9632 ft 300 kts 351°
2026-04-17 06:58 60.20228 5.68866 9242 ft 299 kts 351°
2026-04-17 06:58 60.22266 5.68324 8823 ft 297 kts 351°
2026-04-17 06:58 60.24317 5.67770 8418 ft 296 kts 351°
2026-04-17 06:59 60.26363 5.67209 8031 ft 294 kts 351°
2026-04-17 06:59 60.28365 5.66653 7634 ft 292 kts 351°
2026-04-17 06:59 60.30363 5.66094 7447 ft 283 kts 351°
2026-04-17 06:59 60.32275 5.65556 7318 ft 272 kts 351°
2026-04-17 07:00 60.34117 5.65035 7166 ft 262 kts 351°
2026-04-17 07:00 60.35885 5.64536 6907 ft 258 kts 352°
2026-04-17 07:00 60.37660 5.64034 6656 ft 256 kts 352°
2026-04-17 07:00 60.39418 5.63534 6402 ft 255 kts 352°
2026-04-17 07:01 60.41171 5.63036 6137 ft 253 kts 352°
2026-04-17 07:01 60.42914 5.62541 6011 ft 252 kts 352°
2026-04-17 07:01 60.44647 5.62048 6008 ft 252 kts 352°
2026-04-17 07:01 60.46398 5.61552 6011 ft 253 kts 352°
2026-04-17 07:02 60.48142 5.61177 6006 ft 252 kts
2026-04-17 07:02 60.49876 5.61236 6008 ft 253 kts
2026-04-17 07:02 60.51644 5.61288 6007 ft 253 kts
2026-04-17 07:02 60.53400 5.61156 6007 ft 252 kts 351°
2026-04-17 07:03 60.55092 5.60218 6010 ft 252 kts 339°
2026-04-17 07:03 60.56727 5.59038 6013 ft 252 kts 340°
2026-04-17 07:03 60.58380 5.57813 6012 ft 252 kts 334°
2026-04-17 07:03 60.59870 5.55974 6011 ft 250 kts 319°
2026-04-17 07:04 60.61217 5.53716 6012 ft 250 kts 319°
2026-04-17 07:04 60.62567 5.51453 6006 ft 250 kts 318°
2026-04-17 07:04 60.63748 5.48878 6007 ft 248 kts 302°
2026-04-17 07:04 60.64625 5.45915 6016 ft 247 kts 298°
2026-04-17 07:05 60.65502 5.42878 6013 ft 249 kts 296°
2026-04-17 07:05 60.66061 5.40835 6010 ft 248 kts 289°
2026-04-17 07:05 60.66564 5.37520 5987 ft 241 kts 274°
2026-04-17 07:05 60.66745 5.33069 5550 ft 232 kts 255°
2026-04-17 07:06 60.66178 5.30089 5209 ft 221 kts 229°
2026-04-17 07:06 60.65486 5.28556 4996 ft 214 kts 213°
2026-04-17 07:06 60.64204 5.27207 4651 ft 207 kts 191°
2026-04-17 07:06 60.62783 5.26976 4283 ft 205 kts 176°
2026-04-17 07:07 60.61360 5.27111 4032 ft 203 kts 176°
2026-04-17 07:07 60.59953 5.27162 4003 ft 206 kts 185°
2026-04-17 07:07 60.58560 5.26422 3929 ft 207 kts 195°
2026-04-17 07:07 60.57224 5.25270 3666 ft 209 kts 206°
2026-04-17 07:08 60.55988 5.23669 3407 ft 211 kts 209°
2026-04-17 07:08 60.54766 5.21999 3143 ft 211 kts 210°
2026-04-17 07:08 60.53566 5.20357 3013 ft 212 kts 210°
2026-04-17 07:08 60.52349 5.18704 3004 ft 211 kts 209°
2026-04-17 07:09 60.51120 5.17113 3004 ft 202 kts 208°
2026-04-17 07:09 60.49920 5.15762 3007 ft 192 kts 196°
2026-04-17 07:09 60.48648 5.15343 3001 ft 178 kts 176°
2026-04-17 07:09 60.47475 5.15684 3025 ft 169 kts 170°
2026-04-17 07:10 60.46372 5.16058 3009 ft 154 kts 169°
2026-04-17 07:10 60.45343 5.16407 3008 ft 147 kts 169°
2026-04-17 07:10 60.44338 5.16748 2940 ft 146 kts 169°
2026-04-17 07:10 60.43339 5.17087 2789 ft 145 kts 169°
2026-04-17 07:11 60.42338 5.17426 2607 ft 146 kts 170°
2026-04-17 07:11 60.41336 5.17765 2416 ft 146 kts 169°
2026-04-17 07:11 60.40328 5.18107 2219 ft 147 kts 169°
2026-04-17 07:11 60.39323 5.18447 2017 ft 148 kts 169°
2026-04-17 07:12 60.38330 5.18782 1833 ft 137 kts 169°
2026-04-17 07:12 60.37436 5.19083 1635 ft 125 kts 169°
2026-04-17 07:12 60.36606 5.19359 1486 ft 120 kts 170°
2026-04-17 07:12 60.35779 5.19609 1284 ft 119 kts 170°
2026-04-17 07:13 60.34964 5.19851 1085 ft 117 kts 168°
2026-04-17 07:13 60.34163 5.20171 913 ft 121 kts 169°
2026-04-17 07:13 60.33319 5.20437 774 ft 123 kts 169°
2026-04-17 07:13 60.32469 5.20733 606 ft 124 kts 169°
2026-04-17 07:14 60.31619 5.21019 466 ft 124 kts 167°
2026-04-17 07:14 60.30761 5.21337 300 ft 127 kts 169°
2026-04-17 07:14 60.29904 5.21615 165 ft 115 kts 168°
2026-04-17 07:14 60.29275 5.21836 153 ft 67 kts 171°
2026-04-17 07:15 60.28968 5.21948 151 ft 16 kts 170°
2026-04-17 07:15 60.28923 5.22104 150 ft 16 kts 89°
2026-04-17 07:15 60.28929 5.22241 151 ft 0 kts 79°
2026-04-17 07:15 60.28929 5.22242 151 ft 0 kts 79°
2026-04-17 07:16 60.28939 5.22341 151 ft 12 kts 79°
2026-04-17 07:16 60.28921 5.22407 151 ft 3 kts 163°
2026-04-17 07:16 60.28898 5.22423 150 ft 4 kts 151°
2026-04-17 07:17 60.28895 5.22458 150 ft 2 kts 90°
2026-04-17 07:17 60.28896 5.22484 150 ft 2 kts 91°
2026-04-17 07:17 60.28893 5.22516 150 ft 1 kts 101°
2026-04-17 07:18 60.28892 5.22524 150 ft 0 kts 101°
2026-04-17 07:18 60.28891 5.22531 150 ft 2 kts 101°
2026-04-17 07:18 60.28891 5.22536 150 ft 1 kts 102°
2026-04-17 07:18 60.28891 5.22537 150 ft 0 kts 102°